Temp
72 72 71 73 73 73 73 74 75 75 75 77 77 77 74 73 70 66 66 67 68 72 76 73 74 77 76 74 75 75 75 67 68 73 70 67 64 54 52 51 52 51 49 49 49 50 51 52 53 54 55 55 55 55 55 54 54 55 54 53 55 53 53 54 53 55 59 61 59 58 57 58 59 59
72 72 73 74 73 73 73 73 73 74 74 75 76 76 77 76 72 71 67 65 70 69 72 75 74 76 76 75 74 75 73 61 70 75 72 68 64 51 51 50 51 51 49 49 50 51 51 51 51 52 54 54 53 53 54 54 53 54 53 51 53 55 56 55 55 57 58 59 58 58 59 59 59 59
72 71 71 73 73 73 72 73 74 74 74 75 77 76 77 76 74 73 71 65 67 72 68 71 75 75 75 77 74 73 74 68 69 72 72 72 57 56 54 50 50 51 50 49 50 53 53 52 51 51 52 52 52 52 53 54 53 52 52 51 51 54 55 55 55 56 57 57 57 58 57 58 57 58
73 71 71 72 73 73 75 74 73 74 74 74 76 76 76 75 74 74 73 68 65 70 71 71 73 74 73 76 75 74 74 70 62 74 71 69 55 68 66 51 50 50 49 49 50 51 52 52 51 50 49 49 50 50 51 52 51 51 51 50 51 52 54 54 53 54 55 56 56 56 55 57 57 57
73 73 73 72 72 72 73 73 74 75 75 75 75 76 76 75 74 74 71 68 66 67 71 72 73 73 74 74 75 74 72 71 72 69 72 72 72 74 72 65 50 49 48 48 48 49 49 49 49 46 46 48 48 48 49 50 49 50 49 48 49 51 52 52 52 51 53 54 55 54 55 55 55 55
72 71 72 73 72 73 73 72 77 76 76 77 77 76 76 76 74 75 73 70 68 65 68 70 73 72 73 73 74 70 69 69 72 74 73 74 74 73 74 74 63 47 50 49 48 49 48 48 48 48 47 47 48 48 48 48 48 48 47 47 48 50 51 50 50 50 52 53 54 54 54 54 53 54
74 71 71 72 72 72 71 71 73 73 74 77 77 75 76 74 74 75 75 72 68 67 67 70 71 71 70 71 74 74 72 73 74 73 72 74 74 74 72 73 71 48 50 47 49 48 48 49 48 48 48 48 47 47 47 47 47 47 47 47 48 48 47 47 47 48 48 51 53 53 53 52 53 55
73 72 71 71 71 72 70 71 72 73 74 73 75 74 74 73 72 73 72 73 71 70 67 69 73 71 69 70 74 75 74 72 72 74 74 73 73 73 74 73 74 56 47 47 48 49 49 49 49 49 48 49 48 48 48 47 47 47 47 47 46 46 46 46 45 46 46 47 49 50 51 51 53 55
72 71 70 72 73 71 70 70 70 72 70 73 73 73 74 73 72 72 72 73 74 71 68 67 71 71 72 73 72 74 74 73 74 74 72 72 72 70 70 73 72 54 46 50 49 51 52 51 50 50 49 49 49 48 48 47 47 47 47 47 47 47 46 46 45 45 44 44 45 47 48 48 50 54
73 71 72 72 72 72 70 70 69 69 68 69 70 72 73 75 72 71 72 72 72 71 70 69 67 69 69 69 69 72 71 69 70 72 73 73 71 69 68 70 71 72 70 67 64 53 53 50 48 51 51 50 48 48 48 49 48 48 47 47 47 46 46 46 45 44 44 44 44 44 46 47 49 52
73 72 73 72 72 72 72 71 69 69 68 67 67 70 70 72 71 70 71 72 71 70 70 70 70 69 69 69 68 70 71 70 69 66 67 67 72 70 69 67 71 69 67 62 55 57 58 55 59 55 50 50 49 48 48 49 49 48 46 46 46 46 46 46 46 44 44 44 44 44 44 45 48 50
71 71 71 72 73 73 73 72 72 70 69 67 67 66 67 67 69 69 69 68 69 69 68 68 67 69 69 68 68 69 69 68 69 70 65 63 65 67 68 68 67 69 67 67 69 60 56 55 53 48 48 49 49 48 48 49 49 48 46 46 45 46 46 45 45 45 44 45 45 44 44 43 44 46
68 69 69 68 72 69 60 53 55 56 58 68 66 66 66 66 67 68 68 67 67 68 67 67 67 67 67 68 68 67 66 65 63 65 65 63 65 66 66 68 71 69 65 66 67 68 68 67 66 69 69 65 52 54 49 54 51 47 46 45 45 46 45 45 44 44 44 44 44 43 43 42 42 42
68 69 69 69 61 57 56 57 51 49 48 51 61 68 67 62 62 60 60 65 67 66 66 65 65 63 62 64 65 63 63 64 64 63 63 62 64 64 64 66 69 68 66 63 63 66 69 66 66 68 67 68 63 65 65 64 55 50 45 46 46 45 46 45 44 44 43 43 43 43 42 42 42 42
69 69 70 71 64 60 56 58 47 46 46 46 45 46 50 55 63 62 62 64 65 65 63 64 64 62 60 61 63 64 64 64 62 62 63 62 62 61 60 59 64 69 63 61 60 62 66 66 65 67 67 67 66 66 64 46 50 48 47 45 45 46 45 45 45 43 43 43 42 42 42 42 42 42
70 70 71 71 70 70 68 69 67 55 45 43 43 43 45 46 46 43 58 63 64 63 63 61 61 61 59 61 63 66 65 64 63 63 62 61 61 60 59 60 59 66 66 60 59 59 65 66 64 63 65 65 65 65 56 49 47 46 46 46 45 46 46 45 44 43 42 42 41 41 41 42 42 41
71 71 71 71 70 70 56 63 69 70 64 45 41 44 43 42 43 42 39 45 59 64 62 61 60 60 61 59 61 59 57 59 59 61 62 62 61 60 59 60 61 63 64 60 58 58 62 64 63 62 63 65 65 64 52 48 47 46 45 46 46 45 45 44 44 43 42 41 41 41 41 41 41 41
69 69 70 70 71 70 69 69 68 69 68 63 59 58 61 61 50 42 42 43 45 54 62 62 60 60 60 58 57 57 57 57 56 56 57 58 58 58 57 59 59 60 62 58 57 55 60 64 62 61 63 65 64 63 57 46 46 46 46 46 45 45 44 44 44 43 41 40 40 40 41 41 41 41
68 69 69 69 69 68 67 64 58 67 68 66 64 63 63 63 63 62 60 60 61 61 60 61 60 59 59 59 58 58 57 56 55 56 56 56 57 57 58 58 59 60 64 61 57 52 58 61 59 60 62 64 64 64 56 51 47 47 46 46 45 45 44 43 43 42 41 41 42 42 41 41 41 41
69 69 69 69 67 67 64 50 41 51 65 66 64 62 63 62 59 53 44 41 43 51 57 59 59 58 51 45 51 51 53 56 57 57 59 59 57 56 56 56 59 59 64 63 59 54 56 60 57 58 62 62 61 63 63 54 49 47 46 45 45 44 43 43 43 43 43 43 43 43 43 43 42 42
66 64 65 68 68 66 63 45 43 46 48 66 64 63 61 61 60 56 52 43 39 39 39 38 37 38 38 40 39 40 39 47 51 56 55 55 58 56 54 55 57 58 61 63 61 57 54 58 58 57 59 59 58 59 60 61 53 45 47 45 45 45 45 44 44 44 44 44 44 44 44 43 43 42
64 57 44 56 67 64 60 40 44 43 54 66 65 64 62 61 60 57 56 56 50 38 39 38 38 39 40 38 36 38 39 37 43 53 52 55 56 53 54 53 55 57 59 60 62 56 54 57 58 56 58 58 59 60 62 61 58 48 47 46 46 46 45 45 45 44 45 44 44 45 44 44 44 52
64 60 51 42 49 54 46 37 40 39 52 66 64 64 62 60 60 58 57 55 54 53 53 52 50 48 43 48 53 52 38 40 43 52 53 55 54 53 53 53 53 52 55 61 59 52 54 55 57 55 53 52 58 60 60 60 60 60 61 60 58 47 44 45 45 45 45 45 45 45 43 43 44 55
63 61 58 49 38 38 38 39 39 40 43 60 62 62 62 60 56 56 55 53 54 54 54 55 56 56 58 57 56 57 53 49 50 52 54 55 54 52 52 52 52 50 53 58 60 56 56 56 53 57 55 50 47 56 59 59 60 62 61 60 59 53 50 48 48 46 45 46 45 44 44 44 44 55
63 63 60 56 40 37 38 39 39 40 41 45 59 58 57 54 50 50 56 50 42 53 54 54 55 56 58 58 59 59 59 58 58 57 57 57 57 56 53 53 52 53 56 60 50 56 52 54 53 54 52 52 52 52 55 57 59 60 59 59 58 60 59 58 55 59 51 46 44 43 44 44 44 49
65 62 60 57 43 36 38 38 39 39 41 42 56 48 38 36 39 52 55 55 56 56 56 57 57 58 58 59 58 58 58 58 58 57 58 58 58 57 56 54 51 50 51 57 48 54 52 50 51 49 49 47 48 50 49 51 54 57 58 58 58 58 58 57 57 57 57 58 60 53 52 45 45 43
63 61 56 48 38 38 38 38 38 39 39 44 46 36 37 40 36 41 56 57 55 56 57 56 55 55 56 56 57 56 57 57 58 57 57 59 59 57 56 55 55 53 54 55 56 54 52 49 50 48 46 47 45 46 47 47 50 55 54 55 56 57 58 57 56 56 56 57 57 49 47 47 44 43
62 60 56 47 37 38 37 37 38 38 41 45 36 37 36 37 38 54 56 55 55 52 52 53 54 55 56 56 55 55 55 56 57 56 56 54 55 54 54 54 53 54 54 54 53 53 50 48 48 49 47 45 43 42 42 48 48 50 50 53 54 54 55 55 55 54 54 55 55 55 55 55 57 54
57 44 37 35 37 37 37 36 37 39 37 35 36 37 37 38 55 55 56 55 54 53 52 53 53 54 54 54 53 57 58 55 53 51 51 53 53 52 51 50 49 49 48 49 49 49 48 47 46 47 46 46 44 44 44 43 46 47 48 47 47 51 52 53 53 52 51 52 52 53 53 54 54 54
36 37 37 36 35 37 40 49 53 52 48 38 38 37 38 54 55 54 54 54 52 52 52 50 50 52 53 54 56 53 50 50 51 50 49 48 48 48 48 47 48 50 50 51 51 50 49 48 47 46 44 44 44 43 44 43 43 46 47 46 48 49 50 51 51 52 50 50 51 51 52 53 53 53
47 43 46 47 42 42 38 41 42 44 41 44 46 52 55 55 54 53 52 51 51 52 51 50 51 52 53 52 50 49 49 48 49 50 47 46 46 46 47 45 45 46 48 50 51 50 50 50 49 47 43 43 44 44 44 44 42 44 46 47 46 41 46 49 50 49 50 49 50 50 51 52 52 51
52 51 41 42 51 50 51 52 54 55 55 53 51 54 55 54 53 49 44 44 53 54 52 51 50 48 48 48 48 48 47 47 48 48 47 46 45 45 45 42 41 43 45 47 48 50 46 49 48 48 46 44 41 43 45 44 42 43 44 45 45 46 47 47 47 49 49 49 47 47 48 50 50 51
52 52 52 52 52 53 47 51 49 54 53 51 52 51 53 54 54 54 54 53 53 50 49 47 44 44 46 46 46 46 46 46 46 48 46 46 44 44 43 40 41 42 42 43 46 47 48 48 49 48 47 46 46 44 41 39 42 45 44 45 45 44 46 48 48 48 49 47 45 46 46 48 50 50
52 50 52 49 52 47 51 51 50 50 48 48 49 49 45 49 52 50 51 53 51 49 45 45 44 43 42 42 44 44 43 44 44 45 42 44 44 42 41 40 41 44 43 43 44 45 46 47 48 47 47 46 47 46 44 41 40 42 44 44 44 43 46 47 48 48 48 46 44 42 43 45 48 49
52 52 52 51 51 51 51 49 50 50 49 49 50 49 48 51 48 47 50 51 47 46 45 44 43 44 42 41 42 41 41 41 42 44 43 44 43 42 42 40 40 41 42 42 43 44 45 45 45 43 43 43 42 45 47 46 43 42 44 44 45 44 45 47 46 47 47 46 45 40 40 42 44 48
52 53 53 52 49 50 49 48 48 47 48 47 47 49 49 49 48 48 48 47 47 45 45 44 43 43 43 42 41 41 40 40 40 41 40 41 41 40 42 41 40 41 42 42 42 44 44 43 42 40 36 37 36 36 39 45 45 45 41 40 43 44 45 46 46 46 45 44 44 42 39 39 41 45
52 52 50 51 48 48 49 46 49 49 50 47 49 47 48 49 49 52 50 44 48 45 45 44 44 43 43 42 41 40 40 39 39 38 39 40 40 39 39 39 40 41 41 42 44 44 44 42 41 39 37 35 34 34 38 42 42 43 45 39 41 43 44 44 43 42 44 44 44 42 40 40 40 43
51 51 48 51 52 52 50 46 45 47 48 49 49 49 50 51 52 52 55 52 47 46 45 45 44 43 43 42 41 41 41 40 41 40 40 39 39 39 40 39 40 40 41 41 42 42 43 41 39 38 37 34 34 35 36 42 43 42 42 43 39 41 42 42 41 41 42 45 44 44 43 41 41 41
52 50 49 48 51 51 48 48 48 48 49 49 48 49 46 49 49 49 48 49 47 45 45 45 44 43 41 41 42 41 41 40 39 39 39 39 38 38 38 38 38 39 39 38 40 40 41 40 39 39 38 36 35 36 38 37 37 43 43 40 41 39 40 40 40 40 41 41 42 45 43 43 40 36
51 52 52 51 51 51 50 50 49 50 49 48 50 51 48 48 45 48 47 47 46 44 44 44 44 43 43 43 42 42 41 39 39 39 38 38 38 38 37 38 38 37 37 37 37 38 40 40 41 41 41 40 40 40 40 39 40 42 41 40 39 40 41 42 40 40 41 42 43 41 42 43 41 40
50 50 51 51 52 51 50 50 51 48 50 51 50 46 48 49 45 46 45 45 43 45 46 46 44 42 43 43 43 42 40 40 40 39 38 38 37 37 37 36 37 38 37 36 37 37 39 42 42 37 39 39 39 39 38 35 34 37 39 42 41 39 39 40 42 42 39 41 40 40 39 39 39 39
48 50 50 51 51 52 52 51 51 48 50 50 47 45 45 46 49 42 45 44 44 45 47 47 45 44 44 44 44 42 41 39 39 39 38 38 37 37 37 37 38 38 37 36 37 38 41 44 43 43 41 39 38 35 33 35 35 38 40 42 43 38 37 36 35 36 40 38 37 37 38 39 40 39
48 47 49 49 51 51 48 49 50 50 49 46 48 46 48 49 49 48 49 47 47 47 47 47 46 45 45 44 43 42 41 40 40 39 38 37 37 36 36 37 37 37 37 37 38 39 40 41 43 42 41 40 38 37 35 36 38 38 39 41 41 40 39 37 37 35 35 35 34 35 35 35 34 34
49 48 49 50 49 49 45 49 49 45 47 46 49 49 49 48 47 47 47 47 47 46 45 45 45 44 42 43 42 41 41 41 40 38 37 38 37 37 36 36 37 37 38 38 38 39 41 42 43 43 41 40 41 39 37 37 38 39 40 40 40 40 40 41 39 37 36 34 33 34 35 35 35 35
46 48 46 49 50 49 49 45 47 47 47 48 49 48 47 48 46 47 45 44 45 42 42 43 43 43 42 41 41 39 40 38 38 39 39 39 39 38 37 37 38 38 38 38 38 39 41 43 44 45 43 42 42 40 39 38 38 39 39 39 37 38 39 38 37 36 36 35 33 33 34 34 34 33
MSLP
1021.33 1021.37 1021.33 1021.17 1021.17 1021.21 1021.09 1020.97 1020.81 1020.77 1020.61 1020.37 1020.45 1020.37 1020.73 1020.81 1021.37 1022.05 1022.33 1022.57 1022.57 1022.49 1022.01 1022.45 1022.73 1022.57 1022.77 1022.81 1022.85 1022.97 1023.01 1023.37 1023.21 1023.21 1023.49 1023.81 1024.09 1024.41 1024.29 1024.25 1024.17 1024.09 1024.05 1023.93 1023.85 1023.77 1023.69 1023.61 1023.49 1023.33 1023.25 1023.13 1023.05 1022.97 1022.89 1022.81 1022.77 1022.69 1022.65 1022.57 1022.45 1022.37 1022.29 1022.17 1022.05 1021.93 1021.77 1021.69 1021.69 1021.69 1021.69 1021.69 1021.61 1021.53
1021.41 1021.45 1021.33 1021.21 1021.33 1021.41 1021.29 1021.37 1021.25 1021.13 1021.05 1020.93 1020.77 1020.77 1020.61 1020.65 1021.25 1021.49 1022.09 1022.85 1022.57 1022.97 1022.69 1022.41 1022.73 1022.73 1022.85 1022.89 1023.01 1023.01 1023.33 1023.65 1023.29 1023.17 1023.49 1023.85 1024.25 1024.53 1024.45 1024.41 1024.37 1024.33 1024.25 1024.13 1024.01 1023.89 1023.85 1023.73 1023.61 1023.49 1023.41 1023.29 1023.21 1023.09 1023.01 1022.93 1022.89 1022.81 1022.73 1022.65 1022.53 1022.37 1022.25 1022.17 1022.05 1021.93 1021.77 1021.73 1021.65 1021.61 1021.53 1021.49 1021.49 1021.45
1021.61 1021.69 1021.69 1021.49 1021.53 1021.53 1021.57 1021.45 1021.41 1021.33 1021.21 1021.09 1020.89 1020.97 1020.85 1020.93 1021.13 1021.13 1021.73 1022.81 1023.05 1022.61 1023.25 1023.21 1022.89 1022.93 1022.89 1022.85 1023.13 1023.25 1023.33 1023.61 1023.49 1023.33 1023.37 1023.61 1024.21 1024.21 1024.41 1024.49 1024.49 1024.45 1024.37 1024.25 1024.13 1024.01 1023.93 1023.85 1023.77 1023.69 1023.57 1023.49 1023.37 1023.33 1023.21 1023.09 1022.97 1022.89 1022.81 1022.73 1022.61 1022.45 1022.33 1022.21 1022.09 1021.97 1021.85 1021.77 1021.69 1021.57 1021.49 1021.45 1021.41 1021.33
1021.77 1021.89 1021.85 1021.81 1021.73 1021.69 1021.45 1021.53 1021.57 1021.53 1021.53 1021.37 1021.13 1021.09 1021.13 1021.25 1021.29 1021.33 1021.49 1022.21 1023.25 1022.97 1023.01 1023.17 1023.13 1023.13 1023.17 1022.85 1022.93 1023.13 1023.29 1023.65 1023.53 1023.21 1023.41 1023.61 1024.01 1023.57 1023.77 1024.33 1024.41 1024.45 1024.41 1024.33 1024.21 1024.13 1024.05 1023.97 1023.85 1023.81 1023.73 1023.61 1023.49 1023.41 1023.29 1023.21 1023.09 1022.97 1022.85 1022.73 1022.61 1022.49 1022.33 1022.25 1022.17 1022.05 1021.93 1021.85 1021.73 1021.65 1021.57 1021.45 1021.37 1021.33
1021.77 1021.77 1021.85 1022.01 1022.05 1022.01 1021.85 1021.77 1021.69 1021.61 1021.61 1021.53 1021.37 1021.21 1021.21 1021.41 1021.49 1021.45 1021.85 1022.57 1023.21 1023.37 1023.13 1023.01 1023.05 1023.25 1023.05 1023.05 1022.97 1023.13 1023.33 1023.41 1023.41 1023.41 1023.37 1023.41 1023.25 1023.05 1023.17 1023.77 1024.29 1024.37 1024.41 1024.33 1024.25 1024.17 1024.09 1024.01 1023.93 1023.89 1023.77 1023.65 1023.57 1023.41 1023.29 1023.17 1023.09 1022.97 1022.85 1022.77 1022.61 1022.49 1022.33 1022.25 1022.17 1022.09 1021.97 1021.85 1021.77 1021.69 1021.61 1021.53 1021.45 1021.37
1021.93 1022.05 1021.93 1021.89 1022.13 1022.05 1022.05 1022.09 1021.61 1021.73 1021.65 1021.41 1021.33 1021.41 1021.29 1021.49 1021.65 1021.49 1021.73 1022.37 1022.77 1023.41 1023.33 1023.17 1023.09 1023.25 1023.21 1023.13 1023.21 1023.45 1023.49 1023.53 1023.25 1023.01 1023.21 1023.21 1023.13 1023.17 1022.97 1022.89 1023.81 1024.29 1024.37 1024.37 1024.29 1024.17 1024.09 1023.97 1023.89 1023.81 1023.77 1023.69 1023.57 1023.45 1023.29 1023.13 1023.01 1022.89 1022.81 1022.69 1022.57 1022.45 1022.33 1022.25 1022.13 1022.01 1021.89 1021.77 1021.65 1021.57 1021.49 1021.45 1021.41 1021.33
1021.73 1022.05 1022.13 1022.13 1022.25 1022.29 1022.33 1022.37 1022.09 1022.17 1021.89 1021.45 1021.49 1021.73 1021.61 1021.77 1021.85 1021.77 1021.73 1022.05 1022.65 1022.97 1023.05 1023.01 1023.01 1023.09 1023.25 1023.09 1022.97 1023.05 1023.25 1023.25 1023.09 1023.05 1023.17 1023.05 1023.13 1023.17 1023.25 1022.97 1023.25 1024.17 1024.25 1024.37 1024.25 1024.17 1024.05 1023.93 1023.77 1023.69 1023.61 1023.53 1023.45 1023.37 1023.25 1023.13 1022.97 1022.85 1022.73 1022.61 1022.53 1022.49 1022.41 1022.29 1022.17 1022.05 1021.93 1021.77 1021.61 1021.49 1021.41 1021.33 1021.21 1021.09
1021.81 1021.93 1022.09 1022.13 1022.21 1022.29 1022.45 1022.41 1022.29 1022.21 1022.09 1022.01 1021.77 1021.97 1021.97 1022.09 1022.17 1022.13 1022.13 1022.05 1022.13 1022.49 1022.97 1022.93 1022.49 1022.93 1023.17 1023.25 1022.93 1023.01 1023.09 1023.29 1023.13 1022.93 1023.01 1023.09 1023.09 1023.13 1023.05 1023.01 1022.93 1023.77 1024.09 1024.17 1024.13 1024.01 1023.89 1023.81 1023.69 1023.57 1023.45 1023.37 1023.29 1023.21 1023.13 1023.01 1022.89 1022.77 1022.65 1022.53 1022.45 1022.37 1022.29 1022.21 1022.13 1022.05 1021.93 1021.81 1021.65 1021.49 1021.37 1021.25 1021.13 1020.97
1021.89 1022.01 1022.21 1022.05 1021.97 1022.21 1022.41 1022.45 1022.45 1022.21 1022.49 1022.17 1022.05 1022.09 1021.97 1022.05 1022.29 1022.33 1022.17 1022.05 1022.05 1022.29 1022.73 1023.01 1022.77 1022.85 1022.85 1022.77 1023.01 1022.85 1022.77 1022.73 1022.81 1022.81 1022.93 1023.05 1023.01 1023.13 1023.21 1022.97 1023.01 1023.45 1023.77 1023.81 1023.81 1023.73 1023.61 1023.53 1023.49 1023.41 1023.33 1023.25 1023.13 1023.05 1022.97 1022.89 1022.81 1022.69 1022.57 1022.45 1022.37 1022.29 1022.17 1022.09 1022.01 1021.97 1021.89 1021.81 1021.69 1021.49 1021.33 1021.21 1021.05 1020.89
1021.69 1021.93 1022.01 1022.05 1022.05 1022.13 1022.37 1022.33 1022.45 1022.61 1022.85 1022.85 1022.61 1022.41 1022.09 1021.81 1022.29 1022.37 1022.29 1022.21 1022.21 1022.41 1022.53 1022.85 1023.21 1023.01 1022.97 1023.05 1023.17 1023.01 1023.09 1023.13 1022.97 1022.77 1022.65 1022.69 1022.93 1023.09 1023.05 1022.89 1022.81 1022.89 1023.01 1023.05 1023.17 1023.33 1023.13 1023.09 1023.21 1023.05 1023.05 1022.97 1022.93 1022.85 1022.77 1022.69 1022.61 1022.53 1022.45 1022.37 1022.33 1022.21 1022.09 1022.01 1021.93 1021.85 1021.81 1021.69 1021.57 1021.45 1021.29 1021.13 1020.93 1020.69
1021.57 1021.69 1021.73 1021.85 1021.89 1022.01 1022.01 1022.21 1022.45 1022.57 1022.65 1022.93 1022.93 1022.61 1022.61 1022.33 1022.37 1022.61 1022.45 1022.21 1022.25 1022.29 1022.37 1022.49 1022.61 1022.89 1023.01 1022.97 1023.01 1023.09 1023.09 1023.17 1023.17 1023.25 1023.13 1022.97 1022.49 1022.65 1022.85 1022.85 1022.61 1022.69 1022.81 1022.81 1022.89 1022.85 1022.73 1022.73 1022.65 1022.53 1022.61 1022.61 1022.61 1022.57 1022.49 1022.37 1022.33 1022.25 1022.29 1022.29 1022.25 1022.13 1022.01 1021.89 1021.81 1021.77 1021.65 1021.53 1021.41 1021.33 1021.21 1021.09 1020.93 1020.73
1021.57 1021.65 1021.69 1021.69 1021.69 1021.73 1021.73 1021.93 1022.05 1022.25 1022.41 1022.73 1022.73 1023.05 1023.01 1022.93 1022.73 1022.73 1022.61 1022.69 1022.45 1022.33 1022.49 1022.49 1022.61 1022.57 1022.69 1023.09 1023.17 1023.17 1023.13 1022.97 1022.61 1022.89 1023.45 1023.41 1023.05 1022.81 1022.69 1022.57 1022.53 1022.41 1022.53 1022.45 1022.13 1022.25 1022.41 1022.37 1022.25 1022.17 1022.05 1022.05 1022.21 1022.25 1022.17 1021.97 1021.93 1022.01 1022.13 1022.13 1022.05 1021.97 1021.89 1021.77 1021.69 1021.61 1021.53 1021.41 1021.29 1021.21 1021.13 1021.01 1020.93 1020.77
1021.73 1021.69 1021.69 1021.93 1021.77 1021.97 1022.25 1022.45 1022.53 1022.61 1022.61 1022.45 1022.69 1022.85 1022.93 1022.85 1022.81 1022.73 1022.69 1022.73 1022.61 1022.37 1022.29 1022.41 1022.37 1022.61 1022.69 1022.45 1022.65 1022.81 1022.85 1023.13 1023.33 1023.41 1023.49 1023.45 1023.09 1022.89 1022.73 1022.33 1022.01 1022.25 1022.53 1022.33 1022.21 1021.97 1021.81 1021.73 1021.57 1021.37 1020.97 1021.05 1021.85 1021.69 1021.65 1021.37 1021.49 1021.81 1021.89 1021.85 1021.81 1021.77 1021.73 1021.61 1021.57 1021.45 1021.37 1021.29 1021.21 1021.13 1021.05 1020.93 1020.85 1020.73
1021.61 1021.57 1021.65 1021.69 1022.01 1022.33 1022.49 1022.49 1022.29 1022.49 1022.77 1022.77 1022.73 1022.53 1022.73 1023.21 1023.29 1023.65 1023.81 1023.05 1022.53 1022.53 1022.37 1022.37 1022.57 1022.69 1022.81 1022.69 1022.97 1023.29 1023.29 1023.41 1023.45 1023.41 1023.41 1023.37 1023.09 1022.93 1022.65 1022.33 1021.89 1022.09 1022.41 1022.41 1022.25 1021.89 1021.65 1021.61 1021.41 1021.13 1020.85 1020.73 1021.09 1020.85 1020.73 1020.69 1021.17 1021.45 1021.61 1021.65 1021.61 1021.57 1021.49 1021.41 1021.37 1021.29 1021.21 1021.17 1021.05 1020.97 1020.89 1020.81 1020.73 1020.61
1021.33 1021.45 1021.37 1021.41 1021.81 1022.25 1022.49 1022.33 1022.37 1022.61 1022.77 1022.89 1023.01 1023.21 1023.21 1023.13 1023.25 1023.45 1023.29 1022.97 1022.77 1022.65 1022.89 1022.73 1022.69 1023.05 1023.37 1023.41 1023.41 1023.33 1023.25 1023.33 1023.53 1023.45 1023.41 1023.29 1023.13 1022.93 1022.85 1022.53 1022.01 1021.93 1022.69 1022.57 1022.37 1021.89 1021.53 1021.45 1021.17 1020.89 1020.73 1020.61 1020.53 1020.53 1020.53 1021.01 1021.13 1021.37 1021.49 1021.49 1021.45 1021.37 1021.29 1021.17 1021.13 1021.13 1021.09 1021.01 1020.97 1020.85 1020.73 1020.61 1020.49 1020.37
1021.05 1021.05 1021.01 1021.09 1021.25 1021.41 1021.69 1021.69 1021.81 1022.33 1022.69 1022.93 1023.17 1023.33 1023.45 1023.57 1023.73 1023.89 1023.49 1022.97 1022.81 1023.09 1023.09 1023.29 1023.33 1023.41 1023.57 1023.33 1023.33 1022.89 1023.09 1023.17 1023.37 1023.33 1023.29 1023.21 1023.09 1023.01 1022.89 1022.61 1022.41 1021.93 1022.29 1022.57 1022.37 1021.81 1021.33 1021.17 1021.05 1020.85 1020.61 1020.49 1020.41 1020.37 1020.49 1020.77 1020.97 1021.17 1021.25 1021.25 1021.21 1021.17 1021.05 1020.97 1020.93 1020.89 1020.89 1020.85 1020.77 1020.69 1020.57 1020.45 1020.33 1020.21
1020.85 1020.85 1020.93 1020.93 1021.05 1021.37 1021.89 1021.73 1021.41 1021.49 1022.13 1023.09 1023.45 1023.53 1023.77 1023.89 1023.89 1023.81 1023.81 1023.69 1023.45 1023.13 1023.25 1023.33 1023.45 1023.49 1023.41 1023.57 1023.45 1023.93 1024.21 1024.21 1023.93 1023.45 1023.17 1023.05 1023.13 1023.09 1023.01 1022.61 1022.33 1022.21 1022.49 1022.57 1022.21 1021.61 1021.13 1021.09 1020.81 1020.61 1020.37 1020.29 1020.17 1020.09 1020.21 1020.45 1020.73 1020.89 1020.93 1020.93 1020.89 1020.89 1020.85 1020.77 1020.69 1020.65 1020.65 1020.61 1020.57 1020.45 1020.37 1020.21 1020.05 1019.93
1021.01 1021.05 1021.01 1020.93 1020.93 1021.09 1021.37 1021.37 1021.41 1021.49 1021.69 1022.41 1022.93 1023.17 1023.09 1023.21 1023.81 1023.85 1023.85 1023.81 1023.93 1023.85 1023.41 1023.29 1023.33 1023.73 1023.97 1023.93 1024.21 1024.37 1024.45 1024.45 1024.25 1024.13 1023.85 1023.65 1023.53 1023.41 1023.17 1022.97 1022.89 1022.61 1022.57 1022.49 1022.21 1021.85 1021.13 1020.69 1020.61 1020.45 1020.09 1020.01 1020.01 1019.97 1020.01 1020.37 1020.49 1020.57 1020.57 1020.61 1020.65 1020.61 1020.61 1020.53 1020.41 1020.37 1020.37 1020.37 1020.29 1020.21 1020.09 1019.97 1019.81 1019.65
1021.13 1021.09 1021.09 1021.05 1021.05 1021.21 1021.45 1021.93 1022.13 1021.69 1021.61 1022.09 1022.29 1022.41 1022.57 1022.77 1022.97 1023.29 1023.57 1023.73 1023.65 1023.69 1023.77 1023.77 1023.85 1024.09 1024.21 1024.25 1024.33 1024.49 1024.61 1024.61 1024.65 1024.53 1024.41 1024.25 1024.05 1023.77 1023.45 1023.01 1022.61 1022.25 1021.93 1021.97 1022.33 1022.01 1021.13 1020.93 1020.85 1020.33 1020.01 1019.81 1019.69 1019.69 1019.73 1019.89 1020.05 1020.21 1020.33 1020.37 1020.41 1020.41 1020.33 1020.25 1020.17 1020.17 1020.13 1020.05 1019.97 1019.85 1019.73 1019.61 1019.49 1019.33
1021.09 1021.13 1021.17 1021.13 1021.37 1021.49 1021.77 1022.53 1022.53 1022.33 1021.89 1022.01 1022.17 1022.33 1022.57 1022.93 1023.53 1024.37 1025.05 1024.97 1024.73 1024.49 1024.29 1024.25 1024.29 1024.45 1024.89 1025.01 1024.97 1025.05 1024.93 1024.73 1024.53 1024.37 1024.17 1023.97 1023.77 1023.53 1022.97 1022.41 1021.81 1021.73 1021.33 1021.45 1021.77 1021.69 1021.17 1020.97 1020.89 1020.33 1020.01 1019.89 1019.65 1019.49 1019.41 1019.45 1019.69 1019.81 1020.01 1020.13 1020.17 1020.13 1020.09 1020.01 1019.93 1019.89 1019.81 1019.73 1019.65 1019.53 1019.41 1019.29 1019.17 1019.05
1021.57 1021.77 1021.69 1021.33 1021.41 1021.65 1022.17 1022.85 1022.73 1022.49 1022.25 1021.89 1022.13 1022.29 1022.57 1022.85 1023.17 1023.93 1024.65 1025.01 1025.09 1025.09 1025.13 1025.17 1025.17 1025.21 1025.17 1025.17 1025.25 1025.25 1025.33 1025.21 1025.01 1024.65 1024.25 1023.57 1023.05 1022.81 1022.65 1022.13 1021.81 1021.33 1021.17 1021.17 1021.33 1021.33 1021.17 1020.85 1020.65 1020.29 1020.05 1019.89 1019.73 1019.57 1019.37 1019.17 1019.13 1019.57 1019.77 1019.77 1019.73 1019.69 1019.69 1019.65 1019.57 1019.53 1019.45 1019.37 1019.29 1019.21 1019.09 1018.97 1018.81 1018.65
1021.93 1022.69 1022.81 1022.13 1021.69 1021.97 1022.65 1023.25 1023.01 1022.81 1022.45 1021.85 1022.01 1022.17 1022.49 1022.69 1023.05 1023.81 1024.21 1024.45 1024.97 1025.33 1025.33 1025.33 1025.29 1025.25 1025.17 1025.17 1025.25 1025.29 1025.29 1025.33 1025.29 1024.89 1024.13 1023.53 1023.45 1023.17 1022.77 1022.33 1021.81 1021.41 1021.37 1021.13 1021.09 1021.45 1021.17 1020.81 1020.61 1020.37 1019.89 1019.77 1019.45 1019.09 1018.85 1018.93 1019.01 1019.17 1019.09 1019.13 1019.25 1019.21 1019.13 1019.13 1019.17 1019.17 1019.09 1018.97 1018.89 1018.77 1018.69 1018.61 1018.49 1018.13
1021.93 1022.65 1023.25 1023.33 1023.05 1023.13 1023.57 1023.57 1023.37 1023.21 1022.61 1021.93 1022.09 1022.13 1022.33 1022.41 1022.73 1023.61 1024.05 1024.33 1024.49 1024.73 1024.81 1024.85 1024.97 1024.93 1025.01 1024.93 1024.69 1024.57 1025.01 1025.13 1025.21 1024.85 1024.41 1023.89 1023.53 1023.17 1022.73 1022.45 1022.17 1021.81 1021.17 1020.81 1021.65 1022.01 1021.05 1020.73 1020.33 1020.49 1020.17 1019.61 1018.85 1018.81 1018.77 1018.85 1018.77 1018.73 1018.61 1018.53 1018.53 1018.65 1018.85 1018.85 1018.81 1018.73 1018.61 1018.45 1018.37 1018.33 1018.33 1018.25 1018.25 1017.81
1021.97 1022.49 1023.05 1023.85 1024.17 1023.89 1023.81 1023.73 1023.61 1023.41 1023.13 1022.57 1022.69 1022.61 1022.41 1022.57 1023.49 1024.13 1024.33 1024.65 1024.57 1024.49 1024.53 1024.25 1024.17 1024.01 1023.85 1023.85 1024.01 1023.85 1024.29 1024.69 1024.69 1024.49 1024.13 1023.89 1023.69 1023.49 1023.17 1022.85 1022.53 1022.17 1021.65 1021.21 1021.17 1021.09 1020.97 1021.05 1020.81 1020.57 1020.17 1019.85 1019.33 1018.73 1018.61 1018.49 1018.33 1018.05 1018.13 1018.17 1018.13 1018.13 1018.21 1018.13 1017.97 1017.85 1017.81 1017.73 1017.73 1017.81 1017.81 1017.73 1017.77 1017.41
1021.57 1021.97 1022.73 1023.61 1024.53 1024.29 1024.17 1024.05 1024.01 1023.93 1023.85 1023.65 1023.37 1023.49 1023.69 1024.25 1024.61 1024.49 1024.21 1024.81 1025.09 1024.49 1024.25 1024.17 1023.93 1023.61 1023.41 1023.33 1023.25 1023.21 1023.13 1023.25 1023.33 1023.41 1023.45 1023.45 1023.33 1023.05 1022.85 1022.57 1022.21 1021.73 1021.21 1020.97 1021.45 1021.57 1021.33 1020.97 1020.57 1020.49 1020.65 1020.37 1019.69 1019.29 1018.69 1018.53 1018.25 1018.05 1018.21 1018.13 1017.77 1017.53 1017.65 1017.61 1017.57 1017.33 1017.17 1017.17 1017.21 1017.21 1017.13 1017.13 1017.21 1017.25
1021.41 1021.97 1022.73 1023.57 1024.69 1024.69 1024.57 1024.53 1024.53 1024.53 1024.37 1024.25 1024.09 1024.93 1025.13 1025.21 1025.05 1024.65 1024.33 1024.17 1024.09 1023.89 1023.69 1023.37 1023.09 1022.97 1022.93 1022.81 1022.81 1022.89 1022.97 1023.01 1023.17 1023.25 1023.17 1022.97 1022.81 1022.93 1022.81 1022.69 1022.49 1022.13 1021.77 1021.45 1021.69 1021.73 1021.57 1021.21 1021.13 1020.93 1020.73 1020.81 1020.25 1020.01 1019.45 1019.05 1018.77 1018.45 1018.37 1018.17 1017.89 1017.61 1017.57 1017.41 1017.29 1017.13 1017.05 1016.81 1016.53 1016.49 1016.73 1017.01 1017.09 1017.13
1021.73 1022.41 1023.33 1024.45 1025.01 1024.85 1024.89 1024.89 1024.89 1024.81 1024.81 1024.73 1025.13 1025.45 1025.37 1025.33 1025.21 1025.01 1024.05 1023.89 1023.93 1023.57 1023.45 1023.45 1023.37 1023.21 1023.09 1022.93 1022.85 1022.89 1022.85 1022.89 1023.01 1023.21 1023.09 1022.61 1022.57 1022.77 1022.77 1022.69 1022.49 1022.29 1021.97 1021.81 1021.81 1021.73 1021.69 1021.41 1021.33 1021.29 1021.05 1020.89 1020.73 1020.33 1020.13 1019.57 1018.77 1018.53 1018.33 1018.13 1017.93 1017.73 1017.57 1017.37 1017.17 1016.97 1016.85 1016.69 1016.53 1016.61 1016.57 1016.41 1016.41 1016.45
1022.01 1022.49 1023.33 1024.45 1025.09 1025.05 1025.05 1025.13 1025.09 1025.05 1024.97 1025.17 1025.65 1025.53 1025.49 1025.29 1025.17 1024.37 1023.81 1023.81 1023.65 1023.85 1023.77 1023.61 1023.29 1023.05 1022.97 1023.09 1023.05 1023.05 1023.29 1023.21 1023.01 1023.05 1023.01 1023.17 1023.09 1023.01 1022.77 1022.65 1022.57 1022.45 1022.25 1022.21 1022.17 1022.13 1022.01 1021.81 1021.57 1021.41 1021.25 1021.09 1020.97 1020.73 1020.25 1019.61 1019.33 1018.97 1018.65 1018.21 1018.09 1017.93 1017.73 1017.53 1017.33 1017.17 1017.05 1016.81 1016.57 1016.37 1016.25 1015.97 1015.69 1015.77
1022.61 1023.49 1024.37 1024.93 1025.01 1025.05 1025.09 1025.21 1025.33 1025.41 1025.57 1025.57 1025.53 1025.49 1025.29 1025.17 1024.21 1023.93 1023.89 1023.81 1023.89 1023.69 1023.53 1023.37 1023.41 1023.41 1023.33 1023.41 1023.53 1023.01 1022.77 1023.33 1023.69 1023.69 1023.37 1023.13 1023.09 1023.13 1023.09 1023.09 1022.97 1022.81 1022.77 1022.65 1022.57 1022.45 1022.33 1022.13 1021.85 1021.65 1021.53 1021.29 1021.05 1020.61 1020.53 1020.05 1019.73 1019.25 1018.97 1018.85 1018.61 1018.17 1017.93 1017.81 1017.61 1017.41 1017.21 1017.09 1016.89 1016.65 1016.29 1015.97 1015.73 1015.73
1024.01 1024.37 1024.81 1025.01 1025.09 1025.09 1025.05 1024.65 1024.29 1024.57 1025.17 1025.41 1025.29 1025.21 1025.13 1024.29 1023.93 1024.13 1024.01 1024.01 1024.01 1023.85 1023.81 1024.01 1024.01 1023.81 1023.65 1023.37 1023.01 1023.73 1024.17 1023.89 1023.45 1023.37 1023.37 1023.37 1023.25 1023.17 1023.01 1022.81 1022.45 1022.29 1022.21 1022.09 1022.01 1021.97 1021.89 1021.77 1021.65 1021.57 1021.49 1021.33 1021.13 1020.77 1020.41 1020.13 1019.69 1019.33 1019.09 1018.97 1018.49 1018.33 1018.17 1017.81 1017.53 1017.29 1017.17 1016.97 1016.81 1016.65 1016.45 1016.33 1016.05 1015.85
1024.37 1024.69 1024.57 1024.57 1024.65 1024.53 1024.77 1024.69 1024.81 1024.93 1025.25 1025.21 1024.97 1024.53 1024.17 1024.09 1024.25 1024.29 1024.45 1024.41 1024.25 1023.97 1023.93 1023.97 1023.93 1023.81 1023.81 1024.09 1024.21 1023.93 1023.77 1023.73 1023.53 1023.41 1023.53 1023.49 1023.25 1023.09 1022.85 1022.69 1022.41 1022.17 1021.89 1021.77 1021.65 1021.53 1021.41 1021.25 1021.21 1021.25 1021.29 1021.01 1020.85 1020.65 1020.37 1020.17 1019.85 1019.49 1019.05 1018.77 1018.73 1018.77 1018.05 1017.89 1017.65 1017.45 1017.25 1017.09 1016.93 1016.77 1016.49 1016.25 1016.05 1015.85
1023.81 1024.21 1024.65 1024.73 1024.49 1024.57 1024.45 1024.33 1024.09 1023.97 1024.01 1024.09 1024.21 1024.09 1024.05 1024.17 1024.37 1024.65 1024.69 1024.77 1023.93 1023.77 1024.09 1024.29 1024.25 1024.37 1024.37 1024.25 1024.05 1023.97 1023.85 1023.69 1023.49 1023.33 1023.29 1023.21 1023.05 1022.93 1022.81 1022.77 1022.57 1022.21 1021.77 1021.53 1021.29 1021.09 1021.09 1021.05 1021.05 1020.93 1020.89 1020.89 1020.81 1020.45 1020.25 1020.05 1019.77 1019.37 1019.01 1018.77 1018.69 1018.45 1018.17 1017.89 1017.57 1017.33 1017.17 1017.09 1016.97 1016.81 1016.57 1016.33 1016.09 1015.85
1023.69 1023.93 1023.85 1023.61 1023.65 1023.65 1023.69 1023.69 1023.61 1023.73 1023.93 1024.05 1024.17 1024.49 1024.25 1024.05 1023.93 1023.89 1023.73 1023.61 1023.57 1024.21 1024.53 1024.69 1024.81 1024.73 1024.57 1024.33 1024.17 1024.01 1023.77 1023.53 1023.45 1023.33 1023.21 1023.09 1023.05 1022.89 1022.85 1022.77 1022.41 1021.97 1021.61 1021.29 1021.05 1020.89 1020.81 1020.73 1020.65 1020.61 1020.57 1020.49 1020.45 1020.41 1020.41 1020.21 1019.69 1019.25 1018.89 1018.53 1018.45 1018.25 1017.97 1017.65 1017.45 1017.21 1017.09 1017.05 1016.89 1016.69 1016.49 1016.25 1016.01 1015.85
1023.21 1023.41 1023.25 1023.37 1023.37 1023.45 1023.49 1023.53 1023.69 1023.89 1024.01 1024.09 1024.09 1024.17 1024.77 1024.45 1024.13 1024.37 1023.93 1023.73 1024.09 1024.49 1024.85 1024.81 1024.81 1024.73 1024.69 1024.61 1024.25 1024.05 1023.93 1023.77 1023.65 1023.45 1023.45 1023.21 1022.97 1022.89 1022.69 1022.45 1022.05 1021.65 1021.49 1021.29 1021.01 1020.77 1020.57 1020.41 1020.33 1020.21 1020.17 1020.09 1020.01 1019.97 1020.01 1019.97 1019.61 1019.25 1018.89 1018.57 1018.37 1018.13 1017.69 1017.37 1017.13 1017.05 1016.97 1016.89 1016.93 1016.93 1016.61 1016.21 1015.97 1015.77
1022.85 1022.93 1022.97 1023.13 1023.25 1023.37 1023.41 1023.57 1023.73 1024.01 1024.05 1024.17 1024.09 1024.13 1024.21 1024.13 1024.33 1024.37 1023.93 1024.01 1024.49 1024.61 1024.65 1024.69 1024.57 1024.53 1024.57 1024.53 1024.41 1024.25 1024.09 1023.97 1023.73 1023.37 1023.21 1023.05 1022.85 1022.65 1022.41 1022.25 1021.97 1021.69 1021.45 1021.17 1020.93 1020.69 1020.53 1020.29 1020.13 1020.01 1019.85 1019.73 1019.61 1019.25 1019.25 1019.17 1019.13 1018.77 1018.57 1018.29 1018.09 1017.89 1017.53 1017.25 1017.13 1016.93 1016.89 1016.85 1016.85 1016.97 1016.69 1016.41 1016.13 1015.77
1022.57 1022.57 1022.69 1022.89 1023.13 1023.37 1023.57 1023.89 1024.05 1024.13 1024.17 1024.29 1024.29 1024.13 1024.05 1023.97 1024.17 1024.17 1023.73 1024.45 1024.77 1024.61 1024.49 1024.49 1024.53 1024.45 1024.45 1024.45 1024.45 1024.33 1024.13 1024.05 1023.85 1023.57 1023.29 1023.01 1022.73 1022.53 1022.33 1022.21 1022.05 1021.81 1021.45 1021.13 1020.89 1020.57 1020.33 1020.21 1020.13 1020.13 1020.17 1020.01 1019.89 1019.53 1018.93 1018.41 1018.61 1018.61 1018.53 1018.37 1018.13 1017.81 1017.53 1017.29 1017.09 1017.05 1017.01 1016.85 1016.73 1016.81 1016.65 1016.41 1016.09 1015.81
1022.37 1022.49 1022.73 1022.93 1023.29 1023.45 1023.61 1023.89 1024.01 1024.13 1024.21 1024.25 1024.29 1024.17 1024.17 1023.97 1024.05 1023.49 1023.89 1024.41 1024.25 1024.37 1024.41 1024.45 1024.37 1024.37 1024.37 1024.25 1024.13 1024.05 1023.97 1023.89 1023.73 1023.49 1023.25 1022.93 1022.73 1022.53 1022.37 1022.01 1021.73 1021.41 1021.17 1020.77 1020.53 1020.29 1020.17 1020.13 1020.09 1020.13 1020.13 1019.97 1019.77 1019.25 1018.45 1017.93 1018.13 1018.29 1018.37 1018.49 1018.29 1017.89 1017.57 1017.37 1017.25 1017.13 1016.89 1016.73 1016.57 1016.57 1016.61 1016.45 1016.13 1015.93
1022.41 1022.61 1022.85 1023.01 1023.21 1023.41 1023.73 1023.89 1024.13 1024.13 1024.17 1024.17 1024.21 1024.17 1024.05 1023.85 1023.85 1023.73 1023.37 1023.65 1024.05 1024.25 1024.21 1024.13 1024.17 1024.21 1024.17 1024.17 1024.09 1023.81 1023.61 1023.45 1023.33 1023.09 1022.81 1022.69 1022.57 1022.33 1022.05 1021.77 1021.49 1021.25 1021.01 1020.77 1020.53 1020.33 1020.21 1020.13 1020.13 1020.09 1020.09 1020.01 1019.65 1019.09 1018.61 1017.81 1017.81 1017.93 1018.13 1018.25 1018.25 1017.93 1017.73 1017.57 1017.37 1017.09 1016.81 1016.53 1016.41 1016.33 1016.41 1016.49 1016.21 1016.25
1022.49 1022.77 1023.01 1023.21 1023.41 1023.61 1023.93 1023.97 1024.01 1024.13 1024.17 1024.13 1024.17 1024.05 1024.05 1023.89 1023.85 1023.97 1023.61 1023.65 1023.89 1024.09 1024.13 1024.01 1023.89 1023.97 1024.13 1023.97 1023.73 1023.57 1023.41 1023.33 1023.29 1023.17 1022.97 1022.69 1022.49 1022.33 1022.13 1021.89 1021.65 1021.25 1021.05 1020.81 1020.49 1020.25 1020.05 1019.93 1019.81 1019.73 1019.65 1019.73 1019.53 1019.05 1018.73 1018.69 1018.41 1017.93 1018.01 1018.21 1018.13 1018.09 1017.77 1017.61 1017.37 1017.09 1016.89 1016.61 1016.29 1016.17 1016.13 1016.29 1016.61 1016.65
1022.65 1022.73 1022.85 1023.17 1023.41 1023.57 1023.73 1023.85 1023.93 1023.97 1024.13 1024.13 1023.93 1024.01 1023.97 1023.97 1023.93 1023.89 1023.85 1023.77 1023.85 1024.09 1024.01 1023.85 1023.81 1023.89 1023.77 1023.65 1023.53 1023.33 1023.21 1023.17 1023.13 1022.97 1022.85 1022.69 1022.49 1022.33 1022.09 1021.81 1021.61 1021.33 1021.01 1020.65 1020.41 1020.05 1019.81 1019.61 1019.41 1019.21 1019.13 1019.09 1019.09 1019.05 1019.01 1018.89 1018.53 1018.21 1018.05 1017.85 1017.85 1017.85 1017.57 1017.41 1017.25 1017.09 1016.81 1016.49 1016.41 1016.29 1015.93 1015.69 1015.81 1016.05
1022.85 1022.97 1023.21 1023.25 1023.41 1023.49 1023.61 1023.69 1023.77 1023.97 1024.01 1024.01 1024.01 1024.21 1024.09 1024.01 1024.01 1024.01 1024.13 1024.21 1024.41 1024.33 1023.89 1023.61 1023.61 1023.69 1023.49 1023.33 1023.17 1023.13 1023.05 1022.93 1022.85 1022.77 1022.65 1022.53 1022.41 1022.21 1021.97 1021.89 1021.53 1021.13 1020.85 1020.45 1020.13 1019.89 1019.61 1019.17 1019.01 1019.13 1019.17 1019.13 1019.05 1019.09 1019.05 1018.89 1018.57 1017.85 1017.49 1017.13 1017.05 1017.17 1017.29 1017.33 1017.21 1017.09 1017.01 1016.85 1016.77 1016.53 1016.29 1016.09 1016.05 1015.85
1023.05 1023.09 1023.29 1023.37 1023.41 1023.45 1023.49 1023.65 1023.77 1023.93 1023.97 1024.01 1023.97 1023.97 1024.01 1023.85 1023.73 1024.41 1024.09 1023.89 1023.97 1023.73 1023.45 1023.37 1023.41 1023.37 1023.25 1023.09 1022.97 1022.93 1022.97 1022.89 1022.77 1022.65 1022.53 1022.41 1022.25 1022.01 1021.73 1021.49 1021.13 1020.73 1020.61 1020.33 1020.01 1019.73 1019.33 1019.09 1018.97 1018.85 1018.85 1018.93 1019.01 1019.13 1018.81 1018.25 1017.85 1017.45 1017.13 1016.93 1016.85 1017.21 1017.45 1017.61 1017.57 1017.45 1017.37 1017.33 1017.25 1016.89 1016.53 1016.21 1016.05 1015.73
1023.17 1023.21 1023.33 1023.41 1023.49 1023.49 1023.61 1023.85 1023.89 1023.97 1023.97 1023.97 1023.97 1024.17 1023.89 1023.69 1023.61 1023.73 1023.53 1023.69 1023.61 1023.49 1023.45 1023.41 1023.41 1023.37 1023.33 1023.29 1023.25 1023.21 1023.09 1022.81 1022.61 1022.57 1022.45 1022.33 1022.13 1021.93 1021.61 1021.29 1021.01 1020.77 1020.53 1020.17 1019.81 1019.53 1019.21 1018.97 1018.73 1018.57 1018.53 1018.61 1018.65 1018.69 1018.45 1017.89 1017.61 1017.41 1017.17 1016.89 1016.81 1017.25 1017.41 1017.53 1017.65 1017.57 1017.53 1017.57 1017.53 1017.41 1017.29 1017.17 1016.89 1016.25
1023.17 1023.33 1023.41 1023.53 1023.65 1023.77 1023.85 1023.97 1024.05 1024.09 1024.09 1023.97 1023.89 1023.85 1023.81 1023.77 1023.77 1023.89 1023.85 1023.89 1023.81 1023.81 1023.93 1023.69 1023.65 1023.65 1023.69 1023.53 1023.41 1023.21 1023.01 1022.85 1022.77 1022.69 1022.49 1022.13 1021.89 1021.73 1021.53 1021.21 1020.93 1020.61 1020.25 1019.93 1019.65 1019.29 1018.93 1018.57 1018.29 1018.21 1018.21 1018.13 1017.97 1018.01 1017.89 1017.77 1017.49 1017.13 1016.97 1016.93 1016.89 1016.89 1016.89 1017.13 1017.45 1017.57 1017.57 1017.53 1017.49 1017.33 1017.21 1017.13 1017.09 1016.97
1023.33 1023.33 1023.37 1023.45 1023.53 1023.65 1023.85 1023.97 1024.01 1024.13 1024.17 1024.13 1023.89 1024.01 1024.01 1023.97 1024.09 1023.97 1023.97 1024.17 1024.17 1024.41 1024.17 1023.97 1023.97 1023.93 1023.93 1023.77 1023.57 1023.33 1023.09 1022.97 1022.81 1022.53 1022.17 1021.81 1021.53 1021.41 1021.25 1020.97 1020.57 1020.21 1019.97 1019.73 1019.53 1019.09 1018.53 1018.13 1017.77 1017.57 1017.57 1017.49 1017.57 1017.65 1017.65 1017.61 1017.45 1017.25 1016.97 1016.93 1017.13 1017.21 1017.25 1017.45 1017.53 1017.61 1017.65 1017.73 1017.77 1017.49 1017.29 1017.25 1017.21 1017.21
Wind_Speed
4 5 5 4 4 4 4 5 5 4 2 1 0 2 1 1 2 3 4 4 4 4 4 4 6 6 5 4 5 5 5 6 6 7 7 7 7 8 10 11 11 10 10 9 9 9 9 10 10 10 11 11 11 10 10 10 10 10 11 9 8 7 6 5 5 6 7 7 7 6 4 3 3 10
4 4 4 4 5 5 4 5 4 4 3 2 1 2 2 2 2 1 2 4 3 4 3 4 5 4 5 4 4 4 5 7 6 6 6 6 7 8 10 10 10 10 10 10 9 9 9 9 10 9 10 10 10 10 9 10 10 9 9 8 8 9 9 9 9 8 7 7 6 6 5 4 4 6
3 4 4 4 4 3 4 3 3 3 2 2 1 0 2 0 3 1 3 4 3 2 4 4 4 4 4 4 4 4 4 3 3 3 4 5 9 10 8 9 9 9 8 9 9 9 9 8 8 9 9 9 9 9 9 9 9 8 8 7 7 9 9 9 9 10 10 8 8 7 6 5 3 4
3 3 3 3 3 2 2 3 3 3 3 3 3 2 1 2 1 0 1 3 6 2 3 4 4 4 3 2 3 4 4 4 5 4 3 4 11 6 8 9 8 7 7 7 8 8 8 8 8 7 8 7 7 7 7 7 7 6 7 7 8 9 9 8 8 9 9 9 8 8 8 8 6 5
2 2 3 3 3 2 2 2 2 2 3 2 2 3 3 3 2 1 3 5 6 4 2 2 3 2 2 3 2 3 2 2 3 1 3 1 1 1 2 7 8 6 5 6 6 6 6 6 6 6 7 7 7 7 7 7 6 6 5 6 6 7 8 8 8 9 8 8 7 6 6 7 7 7
1 1 0 3 2 1 2 1 2 3 1 1 3 3 2 4 3 1 3 4 4 5 4 3 3 4 2 2 2 2 1 1 2 1 2 2 1 2 4 2 6 7 4 3 3 4 4 5 5 6 6 6 6 6 7 7 7 7 6 6 6 7 8 8 8 8 9 9 8 8 7 6 6 7
3 1 1 1 2 0 1 0 2 1 2 2 2 2 2 3 3 3 2 3 4 5 4 4 4 3 2 1 2 3 2 1 1 1 1 1 1 1 1 4 4 7 5 1 2 3 3 4 5 6 6 7 6 6 7 6 7 7 8 7 6 6 6 7 7 7 8 8 9 9 9 8 8 9
2 2 2 2 2 2 2 2 1 2 1 2 2 2 3 3 3 3 2 0 1 2 4 3 3 4 3 3 2 1 2 1 1 1 1 2 1 1 2 3 1 7 5 5 5 4 5 5 5 5 7 8 8 7 7 7 7 7 7 7 7 7 7 7 7 7 9 9 9 10 9 9 10 10
3 2 3 3 2 2 3 2 3 1 1 3 2 2 3 3 3 2 2 1 1 2 3 3 2 3 3 2 1 1 2 2 2 2 1 2 2 1 2 3 1 8 10 10 9 8 8 8 7 5 7 8 8 8 8 7 7 7 7 7 6 8 8 7 6 7 9 10 10 10 11 10 10 11
3 3 4 4 4 5 4 4 2 1 3 4 4 4 4 3 4 3 2 2 1 2 2 3 3 3 3 3 2 1 0 3 3 3 3 2 3 2 3 4 2 3 2 3 5 9 10 12 10 8 8 8 8 9 8 8 8 8 7 6 6 7 9 8 7 7 8 8 7 7 9 11 12 12
3 3 4 4 5 6 5 4 4 5 4 3 5 5 4 4 2 3 4 4 3 3 2 3 3 2 2 2 2 3 0 2 2 2 4 6 4 3 4 6 4 3 3 7 10 8 7 8 9 6 11 11 11 10 9 9 9 8 6 4 5 7 8 8 7 8 9 8 8 7 7 8 10 12
1 1 3 4 5 5 6 4 5 6 5 6 6 2 3 5 5 5 4 4 5 4 4 4 3 4 3 3 1 1 3 2 3 1 4 6 6 6 6 6 6 4 3 6 4 9 11 11 15 17 16 14 11 11 11 13 12 8 2 4 6 7 8 7 7 8 9 8 7 8 8 8 8 10
2 4 4 4 4 5 9 11 7 5 5 3 5 5 7 7 6 6 5 5 5 6 6 5 5 5 6 5 3 4 4 2 3 4 4 5 6 6 7 7 6 3 5 6 6 7 7 8 7 7 7 4 13 13 15 10 9 5 3 5 7 7 7 7 8 9 9 9 9 8 9 9 9 9
4 4 4 4 5 5 4 2 10 7 4 6 5 5 4 5 4 1 7 8 6 6 7 5 5 6 6 4 2 3 2 1 2 3 3 6 6 7 7 7 5 1 4 6 8 8 7 7 8 8 7 4 6 5 6 2 5 3 5 6 7 8 8 7 7 9 10 9 10 10 10 9 9 8
4 4 3 3 7 8 7 7 9 6 7 8 7 4 5 5 4 6 8 8 7 5 3 5 3 2 3 3 3 4 2 2 2 3 4 5 6 7 8 9 8 1 0 6 8 9 8 7 8 7 8 7 6 6 3 9 3 4 8 8 8 8 9 9 8 9 10 10 11 12 12 12 11 11
2 2 0 1 1 1 1 3 6 8 9 8 6 6 5 5 4 5 3 5 4 5 5 3 4 3 4 5 4 6 4 4 4 4 5 6 6 7 8 8 9 5 5 7 9 10 7 6 8 9 8 7 7 7 3 2 4 7 8 9 8 9 10 9 8 9 10 11 11 11 12 12 13 12
1 1 1 1 1 4 5 5 4 2 5 6 3 4 7 7 4 4 6 6 4 2 2 3 4 4 2 3 2 5 4 4 6 6 6 6 7 7 9 9 9 8 8 9 9 10 8 8 8 8 7 8 8 7 9 12 8 9 9 9 10 9 10 10 10 9 10 11 11 11 13 13 12 12
2 2 2 2 2 0 3 1 2 2 0 4 5 6 6 5 7 7 8 8 6 1 4 2 2 3 2 1 2 2 2 4 5 6 7 8 9 9 10 11 11 11 7 8 8 9 8 7 8 9 9 7 7 8 5 8 11 11 9 10 10 10 10 11 10 10 10 11 11 12 12 13 13 13
1 2 2 2 3 1 4 5 6 3 2 1 3 4 5 6 6 5 5 4 2 2 1 1 1 1 1 1 1 1 1 3 4 5 7 9 10 10 11 11 11 10 8 8 6 9 8 8 9 9 9 8 8 8 9 8 10 9 10 10 9 9 10 10 9 9 9 9 11 12 12 13 13 13
1 2 2 1 2 4 5 5 5 6 3 3 3 5 6 6 6 7 6 7 9 8 5 4 4 4 5 5 4 3 3 4 5 6 7 8 9 9 9 9 8 9 7 6 7 9 9 7 9 10 8 9 10 8 8 9 8 11 10 8 9 10 10 9 9 10 11 12 12 12 13 13 13 13
5 5 6 3 3 5 5 4 3 2 7 3 4 5 5 5 5 6 5 7 8 8 8 7 6 6 4 3 2 2 2 3 5 6 8 9 7 8 10 10 9 8 7 6 7 9 10 7 8 10 9 9 10 10 10 9 4 9 8 11 12 11 10 10 11 11 12 12 12 12 13 13 13 14
5 9 13 11 4 6 6 5 4 5 6 2 2 3 4 4 3 4 4 3 4 5 4 3 2 3 3 2 2 4 4 3 4 6 8 8 8 9 9 10 9 9 8 9 6 6 9 9 8 9 9 10 10 9 7 6 6 9 14 16 14 13 13 12 11 12 13 14 14 14 14 13 13 11
6 6 9 13 11 9 7 8 9 9 7 2 2 2 3 4 3 2 2 2 1 1 2 4 5 5 6 7 7 8 11 8 9 8 8 8 8 9 9 9 10 10 7 2 4 7 9 9 8 8 10 10 8 7 7 7 7 7 9 7 8 13 12 11 12 14 15 16 16 15 14 14 12 10
6 6 7 8 9 10 10 11 11 12 14 6 3 2 3 3 2 3 2 2 2 2 3 4 4 6 6 6 6 6 8 9 10 9 7 7 7 8 9 9 9 10 8 7 10 12 11 10 11 10 11 12 10 8 8 9 9 10 9 9 9 11 12 13 14 18 19 19 18 16 16 15 13 10
5 5 6 6 7 9 11 11 11 12 12 10 5 5 4 5 4 4 1 3 4 4 5 6 6 6 6 6 6 6 6 6 6 7 7 8 10 11 11 12 11 12 11 8 7 9 13 13 14 12 12 12 13 13 12 13 13 12 11 12 13 12 12 11 11 11 11 12 16 18 18 17 16 11
3 5 6 6 6 9 11 11 11 11 10 9 6 7 7 4 1 2 2 3 3 4 5 5 5 6 6 6 6 6 6 6 6 6 8 10 11 10 11 12 13 14 13 12 13 13 13 13 12 13 12 12 13 12 13 12 12 13 12 12 12 12 11 12 12 11 11 11 10 7 4 10 14 12
3 6 8 8 8 10 10 10 9 9 10 9 7 6 4 2 2 6 4 2 5 5 5 5 6 6 6 6 5 5 6 5 6 8 10 12 11 11 12 12 13 14 14 14 13 13 13 13 13 13 13 12 14 13 13 13 12 10 11 11 12 11 11 11 12 11 11 11 11 12 14 14 13 15
5 7 8 9 10 10 11 10 11 11 9 7 6 4 4 5 7 4 3 4 3 4 5 5 5 5 5 6 5 6 6 7 9 11 11 11 11 11 11 12 12 13 14 13 13 13 13 13 12 12 13 13 13 13 13 12 12 12 12 11 11 11 11 11 11 11 11 11 10 11 10 9 8 6
7 13 15 14 12 12 12 13 12 10 8 6 4 3 6 8 4 1 3 3 4 5 4 5 5 5 5 5 6 8 10 11 10 9 8 9 9 10 10 11 11 11 10 10 10 11 11 11 12 11 11 11 12 13 12 13 12 12 12 12 12 10 10 11 11 11 11 10 10 10 10 10 9 8
16 15 13 12 12 11 10 8 5 4 5 7 7 7 8 4 1 2 3 3 3 4 4 4 5 5 5 7 9 9 8 8 8 8 8 8 8 8 9 9 10 9 10 10 11 11 11 11 11 11 11 11 11 12 12 12 12 12 12 11 12 12 11 10 9 9 9 9 9 9 9 9 10 10
10 11 9 6 5 7 7 7 6 5 7 7 7 6 3 1 1 1 1 2 3 3 4 5 6 7 8 7 7 7 7 7 7 7 8 8 9 8 9 10 10 10 9 10 9 10 10 11 11 11 11 12 11 12 12 11 13 12 12 11 10 11 10 10 11 10 10 10 10 10 10 10 10 11
9 8 8 8 6 6 6 6 5 3 2 0 1 2 1 0 1 3 5 7 3 5 5 6 6 7 7 7 7 7 7 8 8 7 8 8 9 9 9 9 10 10 10 9 9 9 10 10 10 10 11 11 12 11 11 11 12 12 12 11 11 11 10 11 11 10 10 10 10 10 10 10 10 9
8 7 7 4 4 3 2 1 0 1 1 0 0 1 3 1 1 2 3 3 5 4 5 6 6 6 7 8 8 8 8 8 8 8 8 8 9 9 9 10 10 10 10 9 9 9 8 9 9 10 10 11 11 12 12 12 11 11 11 11 10 10 10 10 10 10 10 10 10 10 10 9 9 9
6 5 4 3 3 2 2 2 1 0 0 0 0 0 0 3 1 3 3 3 4 5 5 5 5 6 6 7 8 8 8 8 8 8 9 9 9 9 9 9 10 10 10 10 10 10 9 9 9 9 9 10 11 12 11 12 12 11 10 10 10 10 10 10 10 10 9 9 9 9 10 9 9 8
5 5 4 3 2 2 1 1 0 0 0 0 0 0 0 0 0 1 3 4 3 3 4 4 5 6 6 7 7 7 8 9 9 9 8 9 9 9 10 10 10 10 10 10 10 10 9 9 9 9 9 9 10 10 11 12 12 12 10 10 10 10 10 9 9 9 9 9 8 8 8 8 8 8
5 4 3 3 3 2 2 1 1 1 0 0 0 0 0 0 1 2 2 4 5 4 4 5 5 6 6 6 7 8 8 8 8 8 8 8 8 9 10 10 10 10 10 10 10 10 10 10 9 9 9 9 9 10 8 13 15 10 10 8 9 9 9 9 9 8 8 8 7 7 8 8 8 8
4 3 3 3 2 3 2 2 1 1 1 0 0 0 1 1 1 3 3 1 4 4 4 5 5 6 6 7 7 7 7 8 8 8 8 8 8 9 9 9 10 10 10 10 9 10 9 10 9 9 9 10 10 10 9 4 10 14 8 8 9 9 9 9 8 8 8 8 8 7 6 7 8 8
4 3 3 3 4 3 2 2 2 1 1 0 0 0 1 2 2 4 4 4 3 4 4 5 5 6 6 6 7 8 8 8 8 8 8 8 9 9 9 10 10 10 10 10 9 10 9 9 9 9 9 9 10 10 9 6 4 5 12 9 8 8 7 8 8 8 7 8 8 7 7 7 7 6
5 4 3 3 4 4 3 2 2 1 1 0 0 0 1 2 2 2 4 3 3 4 5 5 5 5 7 7 7 8 8 8 8 9 9 8 8 9 9 9 10 10 10 10 9 9 9 9 9 9 9 9 9 9 8 8 8 7 4 9 8 8 8 7 8 8 8 7 6 6 6 4 4 4
5 5 5 5 5 5 4 4 1 1 1 0 0 2 2 1 2 2 2 3 5 5 4 5 5 7 7 7 7 8 8 8 8 8 9 9 8 8 9 8 9 10 10 10 10 8 8 8 8 9 9 8 7 6 7 8 10 9 9 9 13 12 10 8 8 7 7 6 7 6 6 3 4 1
5 5 5 4 5 5 3 3 2 1 0 1 1 1 2 2 1 2 3 2 3 4 5 5 6 6 7 8 8 8 9 9 8 8 8 8 9 9 9 10 10 9 10 10 10 9 8 8 7 3 3 3 4 5 6 8 8 7 6 6 11 17 17 13 8 7 7 6 6 6 6 5 4 3
5 3 5 5 4 4 4 3 2 0 0 0 1 1 1 2 1 1 5 1 2 4 5 6 6 7 7 8 8 8 8 8 9 9 9 9 9 10 10 10 9 9 9 10 9 9 9 9 9 9 5 5 5 5 7 7 8 7 5 5 2 6 5 2 6 7 8 6 5 5 3 3 2 3
4 3 3 4 3 3 3 1 1 0 1 1 1 1 2 2 2 1 2 2 3 5 6 6 7 7 7 8 8 8 8 8 8 9 9 9 9 10 9 9 9 9 10 10 9 9 9 9 9 7 6 5 6 6 7 7 6 6 5 5 1 4 3 7 8 8 10 10 6 3 2 2 3 3
3 4 3 3 3 2 2 1 1 1 1 1 1 1 2 2 2 2 2 3 3 3 4 6 7 8 8 8 8 7 7 7 8 9 9 9 9 10 10 10 10 10 9 9 9 8 7 7 6 5 5 6 5 6 7 7 6 4 4 3 2 2 2 1 2 3 3 8 12 8 4 4 3 2
3 3 3 3 3 2 2 1 1 1 1 2 1 2 2 2 2 2 2 2 3 3 3 5 7 7 8 8 8 8 8 9 9 8 8 9 9 9 9 9 9 9 9 8 8 8 6 6 5 4 5 5 5 5 5 5 5 5 4 2 1 1 2 2 2 3 5 5 10 10 8 10 11 12
Wind_Direction
58 63 48 53 58 53 39 29 31 36 357 8 335 301 295 281 152 163 134 106 108 79 31 87 83 76 80 81 77 67 63 22 343 86 84 77 74 55 59 59 59 53 50 51 52 48 44 41 36 32 35 32 30 29 33 30 29 29 28 19 16 16 9 345 334 313 313 321 327 301 329 273 254 234
70 63 59 58 70 51 44 52 34 42 30 357 327 271 326 315 298 180 164 106 78 101 64 53 88 81 97 110 93 96 94 11 336 79 96 91 86 84 67 61 59 57 51 49 47 48 44 38 30 27 28 26 23 19 18 21 20 15 15 7 4 7 8 4 354 341 332 327 313 323 330 336 281 251
70 74 78 81 78 67 63 59 61 50 33 57 147 274 275 58 318 41 120 147 90 26 98 73 50 69 70 80 90 87 78 54 317 104 110 112 130 121 84 73 65 57 55 49 45 44 43 36 27 24 22 18 18 16 13 15 12 7 6 357 356 360 2 2 356 351 354 336 327 321 328 323 321 296
93 97 83 62 65 61 96 77 60 63 53 20 41 86 138 134 344 311 210 105 122 89 100 108 117 109 84 69 114 114 122 113 277 108 110 121 171 194 115 95 78 63 53 48 42 41 37 32 29 19 13 9 6 7 8 11 8 4 1 358 353 352 356 354 351 352 347 344 346 338 324 313 315 306
97 72 87 94 75 38 33 73 89 61 69 63 48 68 105 121 149 165 102 128 127 124 127 154 103 80 253 102 31 87 92 141 133 130 77 74 353 356 142 121 103 81 58 45 39 39 32 27 23 15 8 3 356 355 354 355 358 359 360 353 350 346 349 349 349 344 337 337 333 326 322 319 315 305
74 87 83 91 83 33 34 354 198 127 191 154 136 109 111 112 119 124 140 135 146 135 161 152 142 140 237 135 103 82 70 78 330 130 144 142 329 26 324 154 113 112 75 35 35 17 16 15 4 357 354 347 343 338 336 336 338 343 347 344 343 343 342 340 345 334 337 334 326 324 322 319 313 306
117 152 177 172 133 158 167 253 4 30 266 293 76 82 85 101 113 121 123 157 141 161 144 163 169 131 111 319 119 134 125 16 294 208 53 333 49 5 348 320 114 129 134 196 315 317 313 332 340 337 326 326 325 320 316 319 321 328 330 333 333 337 334 337 331 333 336 332 329 328 326 318 312 308
196 216 211 206 191 200 217 226 222 235 207 255 121 158 124 140 134 116 134 237 213 171 161 179 195 140 164 170 165 150 164 169 234 332 175 208 229 338 321 311 353 137 168 211 246 260 277 275 304 316 306 307 313 308 305 303 310 311 314 320 326 330 337 331 328 337 334 331 332 328 327 324 317 308
251 241 263 261 230 202 242 211 251 254 281 261 186 229 161 166 150 169 224 189 211 198 168 150 142 158 169 129 84 351 314 176 207 196 229 300 299 250 296 277 245 149 183 206 219 232 241 246 240 270 282 283 290 297 296 298 297 296 299 310 317 326 329 323 326 334 327 323 323 322 322 320 315 311
230 228 237 238 238 235 236 239 232 274 270 288 277 249 252 193 171 218 201 237 225 263 189 183 168 201 177 174 159 113 316 342 329 341 333 243 216 274 295 299 277 303 236 252 205 212 232 210 221 243 243 253 266 270 276 284 285 280 283 292 312 324 318 316 321 323 316 310 306 308 317 319 316 314
252 252 239 242 239 240 243 234 228 227 218 265 261 255 249 278 228 221 233 234 226 236 227 210 232 210 202 250 216 172 20 269 301 320 338 328 330 314 307 306 304 234 245 229 218 249 277 290 282 239 214 224 244 257 265 264 262 265 256 278 316 316 312 308 312 312 306 299 301 304 302 307 311 310
247 268 264 252 254 249 245 249 236 242 216 212 231 298 299 276 245 243 242 245 253 232 224 256 253 255 245 214 239 304 243 239 251 26 338 318 318 315 316 298 286 281 283 306 297 215 220 229 227 234 238 227 225 235 245 244 243 232 192 307 315 312 308 302 301 300 298 300 308 311 313 312 309 308
198 220 237 262 262 29 39 31 359 351 333 246 238 208 220 229 245 254 278 264 247 257 264 256 256 261 260 264 267 268 289 311 331 336 313 304 308 312 307 308 296 270 296 307 301 305 316 302 304 307 302 198 195 227 225 243 211 136 328 330 314 308 303 295 294 295 293 298 301 299 300 304 306 306
230 229 226 220 80 66 84 228 249 256 277 302 293 278 201 202 221 231 257 255 263 264 263 261 262 252 276 303 285 304 283 315 296 282 292 299 308 300 296 299 310 250 292 308 303 309 310 301 296 293 284 277 206 286 247 32 52 9 337 302 300 298 296 290 287 290 289 293 297 298 299 298 298 297
197 218 217 222 162 170 175 228 246 246 229 222 239 283 310 303 216 222 242 245 259 267 271 292 307 301 309 293 282 277 290 223 278 308 307 300 301 304 312 311 315 20 120 298 305 301 305 294 288 289 288 284 281 279 272 81 6 342 293 285 279 284 286 282 275 279 283 283 288 292 293 293 296 299
190 217 199 154 154 184 137 265 213 209 218 221 219 224 246 279 352 33 324 290 242 233 253 250 260 280 267 274 255 273 289 323 319 304 297 294 295 299 300 302 303 321 330 311 301 296 292 283 284 282 275 275 276 272 321 322 221 246 257 268 273 273 277 273 261 268 271 277 280 284 284 283 284 288
333 329 316 293 239 117 156 220 235 254 165 151 136 133 112 88 77 75 53 45 14 358 246 252 245 235 259 266 333 43 19 332 296 304 299 308 304 297 292 293 301 303 319 300 288 291 300 293 279 275 277 284 281 266 212 217 225 227 245 269 275 273 269 268 264 256 257 264 274 278 282 279 276 277
318 297 292 296 273 76 201 335 326 311 283 152 158 166 187 158 125 117 108 99 81 335 278 277 271 69 3 304 65 56 11 309 311 317 306 309 302 297 294 301 293 288 284 273 288 286 287 297 300 289 289 284 281 270 284 162 202 220 250 267 275 276 272 269 264 256 254 263 273 276 276 276 272 269
322 298 286 277 308 7 49 47 357 308 255 174 160 160 156 149 144 103 76 53 58 123 69 29 48 85 82 36 49 8 338 310 298 301 299 296 291 288 286 276 261 265 256 251 254 275 293 302 292 289 291 293 286 285 279 236 219 226 232 251 270 276 275 272 264 253 248 253 266 269 269 272 272 269
40 20 346 323 68 68 69 57 22 354 334 154 158 151 143 132 102 77 61 46 37 31 30 32 32 45 50 40 31 20 345 302 286 278 268 262 261 265 272 278 287 281 281 261 262 277 285 296 293 291 290 289 286 288 287 286 217 205 215 233 240 252 266 264 256 256 259 263 266 268 270 269 270 271
57 36 9 26 89 87 78 43 11 30 310 153 157 153 156 147 134 122 111 78 60 53 59 62 66 67 65 74 73 35 343 330 329 293 281 272 275 286 288 288 286 284 288 281 270 280 285 290 293 294 290 291 293 291 287 282 236 163 200 213 227 240 247 248 252 256 260 265 268 270 270 270 272 278
79 52 27 6 75 86 82 32 13 348 294 210 190 184 187 184 161 128 131 138 113 108 99 94 120 161 157 186 222 222 217 219 249 247 272 296 298 282 280 284 291 292 291 282 284 277 278 293 288 288 291 289 277 274 279 295 292 200 203 216 232 233 227 232 244 249 255 260 266 268 269 271 277 274
104 83 56 39 43 62 62 47 39 14 329 222 241 235 239 235 221 104 114 114 134 171 210 200 200 209 197 216 228 212 192 202 218 242 264 280 277 283 288 291 293 287 278 328 102 275 288 292 292 301 299 289 286 289 288 286 281 296 302 280 239 216 221 231 239 246 250 256 258 258 256 262 266 276
119 110 98 68 54 73 70 62 50 37 21 29 70 293 278 282 110 99 90 46 339 248 253 275 268 279 272 258 240 244 188 200 215 236 261 274 285 290 289 287 285 283 289 290 293 296 296 294 287 289 289 296 296 294 289 281 278 281 294 294 286 285 271 254 245 238 241 247 247 243 248 248 243 268
145 126 98 95 60 64 68 67 63 58 43 26 47 43 58 48 37 333 207 137 239 274 276 267 262 254 248 244 247 250 250 239 241 251 260 279 283 285 286 287 286 284 283 296 70 288 287 291 292 294 287 286 288 291 292 296 296 297 293 290 293 294 294 291 296 295 282 244 233 237 238 234 232 246
130 121 120 112 86 81 79 75 71 64 57 50 74 66 75 70 351 281 285 256 237 256 253 268 278 283 280 284 284 282 278 274 263 266 276 281 285 283 282 282 284 284 286 299 319 294 289 285 286 290 288 287 285 289 291 287 291 292 290 287 288 290 291 293 290 287 286 292 290 246 249 222 241 231
129 113 110 105 105 98 96 89 86 91 96 85 85 103 103 113 258 268 251 301 287 282 294 296 288 283 278 276 283 283 285 291 300 297 288 283 284 284 280 281 280 281 285 288 285 282 281 281 282 281 282 281 284 286 283 286 288 291 290 291 291 291 292 293 292 292 291 291 288 300 298 272 226 218
140 137 122 118 118 104 98 89 78 65 63 91 122 140 177 222 244 262 281 264 281 291 277 273 275 283 301 298 294 307 305 292 293 295 300 302 295 286 286 286 285 283 290 291 292 289 286 283 283 280 278 279 278 279 284 286 286 288 289 292 294 295 297 294 291 290 290 287 286 287 288 292 284 254
81 91 104 120 123 120 114 114 117 108 105 114 128 191 236 249 243 276 305 308 300 289 290 295 306 302 305 316 293 289 305 314 304 286 284 288 293 294 290 286 283 282 279 275 278 278 277 277 278 280 279 277 274 275 278 283 288 288 291 296 291 291 293 293 291 293 292 291 290 287 288 288 285 281
105 111 118 121 130 139 152 169 141 115 129 166 184 207 238 244 5 323 328 315 295 302 318 319 308 308 306 298 320 326 297 284 291 302 300 298 296 295 292 291 286 285 284 281 279 276 272 271 272 274 276 272 272 276 278 283 284 286 289 286 289 294 287 285 287 289 290 289 291 294 289 291 286 291
113 132 141 126 98 86 73 74 101 137 156 187 198 205 212 29 349 39 4 326 287 295 311 312 310 314 318 315 301 295 303 298 296 303 299 294 292 294 293 292 292 291 290 288 283 279 278 276 273 270 269 271 272 271 275 277 281 284 284 286 289 287 293 295 293 287 289 290 292 290 287 281 280 280
137 135 115 129 151 156 174 174 183 169 165 129 2 341 296 251 161 224 207 217 262 331 324 313 311 309 307 305 307 303 299 298 297 299 296 294 294 294 296 292 289 291 293 293 286 277 269 268 267 266 265 267 271 275 277 276 277 280 283 284 284 283 284 286 288 289 289 293 289 287 286 285 287 288
144 151 171 174 180 183 189 198 214 172 178 7 83 52 321 271 271 344 348 315 330 324 318 315 313 311 308 307 307 301 297 300 304 303 299 296 294 293 290 286 287 292 295 296 295 291 286 281 274 269 269 271 269 270 275 278 275 278 282 284 286 283 285 283 286 289 294 290 289 290 288 288 289 285
157 175 181 181 189 186 193 188 179 187 201 233 265 107 182 257 14 333 305 325 328 325 311 309 308 308 308 303 304 304 302 302 301 299 294 294 293 289 288 289 290 294 295 295 296 295 294 287 284 277 268 261 258 259 259 264 271 273 276 283 281 283 282 288 286 289 289 288 294 294 293 297 297 295
177 178 186 180 180 180 179 179 141 160 182 322 264 25 315 299 322 279 306 339 323 311 306 305 305 307 307 306 305 303 303 301 300 301 299 295 293 292 292 291 293 296 297 297 295 296 296 292 287 282 276 274 274 268 253 252 264 264 272 273 281 281 286 289 294 291 294 297 292 291 295 294 292 296
183 184 185 181 174 165 165 143 149 161 115 130 322 305 315 350 15 301 324 354 314 308 307 311 311 309 309 307 303 301 300 299 294 294 295 295 296 295 293 291 291 292 294 294 293 291 291 290 288 287 284 281 279 278 274 222 223 257 266 278 280 283 286 290 293 295 293 289 289 294 294 295 297 303
178 177 173 170 159 170 157 150 151 136 134 93 7 358 332 342 332 321 14 251 301 311 311 307 306 311 308 305 304 300 298 295 294 295 294 294 294 294 293 291 289 289 289 290 292 291 289 288 285 280 279 280 278 277 278 294 211 216 257 266 274 279 284 291 291 290 286 283 288 293 297 300 298 307
174 167 170 164 164 153 147 145 143 144 115 56 29 353 339 342 359 338 340 337 335 319 316 309 309 305 306 310 306 305 304 301 301 301 302 302 298 296 296 298 298 295 293 291 289 289 286 283 279 273 272 273 280 279 287 289 290 218 204 237 266 277 285 284 284 288 291 293 292 290 292 288 297 308
175 162 163 158 153 154 152 147 133 123 104 74 6 359 1 341 2 330 345 345 337 325 317 309 309 314 312 308 310 310 309 308 305 303 300 297 297 296 295 294 293 292 293 289 288 285 284 278 273 270 264 264 265 278 291 295 282 292 241 203 249 269 270 275 284 285 285 288 287 291 283 262 276 273
163 164 158 152 154 149 150 147 150 133 146 172 17 14 348 346 338 341 332 346 353 339 324 322 321 320 315 317 314 312 308 303 301 301 299 297 297 295 291 291 292 294 292 290 290 290 287 283 278 279 280 272 277 286 292 286 284 282 278 256 234 242 258 273 273 281 288 292 299 292 293 287 286 194
154 152 149 157 150 148 145 150 140 130 92 34 33 343 321 337 317 4 350 331 346 335 330 330 331 325 321 319 315 313 310 307 306 304 303 301 298 296 293 292 289 287 288 290 291 291 287 288 308 349 277 283 281 292 275 266 267 276 273 266 224 219 229 246 278 289 288 298 297 298 298 307 315 304
161 149 147 152 150 139 136 124 116 101 72 23 352 351 326 303 21 251 269 225 331 332 337 340 337 332 329 326 325 319 313 312 310 310 310 307 302 298 294 294 293 296 294 293 294 294 295 296 296 290 286 286 279 260 262 269 284 292 297 299 6 60 76 30 323 292 277 283 302 298 306 298 302 292
152 150 150 144 140 134 112 118 103 87 31 356 7 337 305 339 346 334 336 347 335 352 351 346 342 337 332 330 327 323 314 312 315 316 312 305 299 297 297 296 296 295 293 291 291 291 291 292 290 289 283 275 265 258 271 285 292 293 293 300 335 162 140 78 49 57 60 44 22 337 308 315 327 321
148 146 144 139 130 123 113 89 72 50 9 348 345 329 351 344 348 338 339 344 338 350 353 347 346 337 331 327 324 321 318 321 319 309 307 305 301 297 296 295 294 293 293 294 297 295 295 293 288 284 284 281 278 270 272 282 286 291 302 315 328 331 339 25 121 127 91 44 17 348 304 255 269 333
150 153 144 140 131 125 117 121 91 48 17 346 340 11 350 355 352 333 352 338 351 343 331 349 342 334 327 322 319 319 320 316 309 310 309 307 305 303 299 296 295 299 300 303 301 298 301 307 307 292 278 277 275 277 284 285 294 309 304 316 340 7 17 24 33 37 32 34 19 27 69 80 83 86